Time,TemperatureF,DewpointF,PressureIn,WindDirection,WindDirectionDegrees,WindSpeedMPH,WindSpeedGustMPH,Humidity,HourlyPrecipIn,Conditions,Clouds,dailyrainin,SoftwareType,DateUTC
2013-03-10 00:00:00,59.0,49.2,30.13,ENE,68,0.8,4.4,70,0.00,,,0.00,WUHU216HW,2013-03-10 05:00:00,
2013-03-10 00:05:00,58.8,49.4,30.12,ENE,68,1.3,4.4,71,0.00,,,0.00,WUHU216HW,2013-03-10 05:05:00,
2013-03-10 00:10:00,58.8,49.4,30.13,ENE,68,0.6,3.5,71,0.00,,,0.00,WUHU216HW,2013-03-10 05:10:00,
2013-03-10 00:15:00,58.8,49.4,30.13,ENE,68,1.7,5.5,71,0.00,,,0.00,WUHU216HW,2013-03-10 05:15:00,
2013-03-10 00:20:00,58.8,49.4,30.13,ENE,68,3.1,5.5,71,0.00,,,0.00,WUHU216HW,2013-03-10 05:20:00,
2013-03-10 00:25:00,58.8,49.4,30.14,ENE,68,0.0,4.2,71,0.00,,,0.00,WUHU216HW,2013-03-10 05:25:00,
2013-03-10 00:30:00,58.8,49.8,30.14,ENE,68,1.7,4.2,72,0.00,,,0.00,WUHU216HW,2013-03-10 05:30:00,
2013-03-10 00:35:00,58.8,49.8,30.14,ENE,68,0.0,3.3,72,0.00,,,0.00,WUHU216HW,2013-03-10 05:35:00,
2013-03-10 00:40:00,58.8,49.8,30.14,ENE,68,0.8,1.5,72,0.00,,,0.00,WUHU216HW,2013-03-10 05:40:00,
2013-03-10 00:45:00,58.8,49.8,30.13,ENE,68,1.3,1.3,72,0.00,,,0.00,WUHU216HW,2013-03-10 05:45:00,
2013-03-10 00:50:00,58.8,49.8,30.12,ENE,68,2.0,3.8,72,0.00,,,0.00,WUHU216HW,2013-03-10 05:50:00,
2013-03-10 00:55:00,58.8,49.8,30.12,ENE,68,3.3,4.6,72,0.00,,,0.00,WUHU216HW,2013-03-10 05:55:00,
2013-03-10 01:00:00,58.8,49.8,30.12,ENE,68,1.1,4.6,72,0.00,,,0.00,WUHU216HW,2013-03-10 06:00:00,
2013-03-10 01:05:00,58.8,50.3,30.11,ENE,68,2.6,2.6,73,0.00,,,0.00,WUHU216HW,2013-03-10 06:05:00,
2013-03-10 01:10:00,58.8,50.1,30.11,ENE,68,1.3,4.0,73,0.00,,,0.00,WUHU216HW,2013-03-10 06:10:00,
2013-03-10 01:15:00,58.8,50.1,30.11,ENE,68,2.4,4.0,73,0.00,,,0.00,WUHU216HW,2013-03-10 06:15:00,
2013-03-10 01:20:00,58.8,50.1,30.11,ENE,68,0.0,3.8,73,0.00,,,0.00,WUHU216HW,2013-03-10 06:20:00,
2013-03-10 01:25:00,58.8,50.5,30.11,ENE,68,4.6,6.4,74,0.00,,,0.00,WUHU216HW,2013-03-10 06:25:00,
2013-03-10 01:30:00,58.8,50.5,30.11,ENE,68,2.6,6.7,74,0.00,,,0.00,WUHU216HW,2013-03-10 06:30:00,
2013-03-10 01:35:00,58.8,50.5,30.10,ENE,68,3.3,6.7,74,0.00,,,0.00,WUHU216HW,2013-03-10 06:35:00,
2013-03-10 01:40:00,58.8,50.5,30.10,ENE,68,2.0,6.2,74,0.00,,,0.00,WUHU216HW,2013-03-10 06:40:00,
2013-03-10 01:45:00,58.8,50.5,30.10,ENE,68,0.0,3.3,74,0.00,,,0.00,WUHU216HW,2013-03-10 06:45:00,
2013-03-10 01:50:00,58.6,50.7,30.10,ENE,68,0.0,2.0,75,0.00,,,0.00,WUHU216HW,2013-03-10 06:50:00,
2013-03-10 01:55:00,58.6,50.7,30.10,ENE,68,0.0,6.0,75,0.00,,,0.00,WUHU216HW,2013-03-10 06:55:00,
2013-03-10 03:00:00,58.6,50.7,30.10,ENE,68,0.0,6.0,75,0.00,,,0.00,WUHU216HW,2013-03-10 07:00:00,
2013-03-10 03:05:00,58.6,51.0,30.10,ENE,68,1.3,2.9,76,0.00,,,0.00,WUHU216HW,2013-03-10 07:05:00,
2013-03-10 03:10:00,58.6,51.0,30.09,ENE,68,0.6,2.9,76,0.00,,,0.00,WUHU216HW,2013-03-10 07:10:00,
2013-03-10 03:15:00,58.4,50.9,30.09,ENE,68,1.5,2.6,76,0.00,,,0.00,WUHU216HW,2013-03-10 07:15:00,
2013-03-10 03:20:00,58.2,50.7,30.09,ENE,68,2.2,2.4,76,0.00,,,0.00,WUHU216HW,2013-03-10 07:20:00,
2013-03-10 03:25:00,58.2,50.7,30.08,ENE,68,0.0,2.2,76,0.00,,,0.00,WUHU216HW,2013-03-10 07:25:00,
2013-03-10 03:30:00,58.1,50.9,30.09,ENE,68,0.0,2.0,77,0.00,,,0.00,WUHU216HW,2013-03-10 07:30:00,
2013-03-10 03:35:00,58.1,50.9,30.09,ENE,68,0.0,1.7,77,0.00,,,0.00,WUHU216HW,2013-03-10 07:35:00,
2013-03-10 03:40:00,57.9,50.7,30.08,ENE,68,0.0,1.7,77,0.00,,,0.00,WUHU216HW,2013-03-10 07:40:00,
2013-03-10 03:45:00,57.9,51.0,30.08,ENE,68,0.0,3.5,78,0.00,,,0.00,WUHU216HW,2013-03-10 07:45:00,
2013-03-10 03:50:00,57.9,51.0,30.08,ENE,68,0.0,3.5,78,0.00,,,0.00,WUHU216HW,2013-03-10 07:50:00,
2013-03-10 03:55:00,57.9,51.0,30.08,North,0,0.0,3.1,78,0.00,,,0.00,WUHU216HW,2013-03-10 07:55:00,
2013-03-10 04:00:00,57.9,51.0,30.09,ENE,68,0.0,1.7,78,0.00,,,0.00,WUHU216HW,2013-03-10 08:00:00,
2013-03-10 04:05:00,57.9,51.0,30.09,ENE,68,0.0,1.7,78,0.00,,,0.00,WUHU216HW,2013-03-10 08:05:00,
2013-03-10 04:10:00,57.9,51.4,30.09,ENE,68,0.0,1.7,79,0.00,,,0.00,WUHU216HW,2013-03-10 08:10:00,
2013-03-10 04:15:00,57.9,51.4,30.09,ENE,68,0.0,0.2,79,0.00,,,0.00,WUHU216HW,2013-03-10 08:15:00,
2013-03-10 04:20:00,57.9,51.4,30.09,ENE,68,1.5,1.5,79,0.00,,,0.00,WUHU216HW,2013-03-10 08:20:00,
2013-03-10 04:25:00,57.9,51.4,30.09,ENE,68,0.0,1.5,79,0.00,,,0.00,WUHU216HW,2013-03-10 08:25:00,
2013-03-10 04:30:00,57.9,51.4,30.09,ENE,68,0.6,1.3,79,0.00,,,0.00,WUHU216HW,2013-03-10 08:30:00,
2013-03-10 04:35:00,57.7,51.2,30.08,ENE,68,0.6,2.9,79,0.00,,,0.00,WUHU216HW,2013-03-10 08:35:00,
2013-03-10 04:40:00,57.7,51.2,30.08,ENE,68,0.8,3.3,79,0.00,,,0.00,WUHU216HW,2013-03-10 08:40:00,
2013-03-10 04:45:00,57.5,51.0,30.07,ENE,68,1.5,3.3,79,0.00,,,0.00,WUHU216HW,2013-03-10 08:45:00,
2013-03-10 04:50:00,57.5,51.0,30.07,ENE,68,0.0,4.0,79,0.00,,,0.00,WUHU216HW,2013-03-10 08:50:00,
2013-03-10 04:55:00,57.3,50.9,30.07,ENE,68,0.0,4.0,79,0.00,,,0.00,WUHU216HW,2013-03-10 08:55:00,
2013-03-10 05:00:00,57.3,50.9,30.07,ENE,68,0.0,1.7,79,0.00,,,0.00,WUHU216HW,2013-03-10 09:00:00,
2013-03-10 05:05:00,57.3,51.2,30.08,ENE,68,0.0,0.8,80,0.00,,,0.00,WUHU216HW,2013-03-10 09:05:00,
2013-03-10 05:10:00,57.3,51.2,30.08,ENE,68,0.0,0.8,80,0.00,,,0.00,WUHU216HW,2013-03-10 09:10:00,
2013-03-10 05:15:00,57.3,51.2,30.08,ENE,68,0.0,0.0,80,0.00,,,0.00,WUHU216HW,2013-03-10 09:15:00,
2013-03-10 05:20:00,57.3,51.2,30.08,ENE,68,0.0,0.0,80,0.00,,,0.00,WUHU216HW,2013-03-10 09:20:00,
2013-03-10 05:25:00,57.2,51.0,30.08,ENE,68,0.0,0.0,80,0.00,,,0.00,WUHU216HW,2013-03-10 09:25:00,
2013-03-10 05:30:00,57.0,50.9,30.08,ENE,68,0.0,0.0,80,0.00,,,0.00,WUHU216HW,2013-03-10 09:30:00,
2013-03-10 05:35:00,57.0,50.9,30.08,ENE,68,0.0,0.0,80,0.00,,,0.00,WUHU216HW,2013-03-10 09:35:00,
2013-03-10 05:40:00,57.0,50.9,30.07,ENE,68,0.0,0.6,80,0.00,,,0.00,WUHU216HW,2013-03-10 09:40:00,
2013-03-10 05:45:00,57.0,50.9,30.07,ENE,68,0.0,0.6,80,0.00,,,0.00,WUHU216HW,2013-03-10 09:45:00,
2013-03-10 05:50:00,57.0,50.9,30.07,ENE,68,0.0,0.0,80,0.00,,,0.00,WUHU216HW,2013-03-10 09:50:00,
2013-03-10 05:55:00,57.0,51.5,30.07,ENE,68,0.0,1.3,81,0.00,,,0.00,WUHU216HW,2013-03-10 09:55:00,
2013-03-10 06:00:00,57.2,51.7,30.07,ENE,68,0.0,1.3,82,0.00,,,0.00,WUHU216HW,2013-03-10 10:00:00,
2013-03-10 06:05:00,57.3,51.9,30.08,ENE,68,0.0,0.2,82,0.00,,,0.00,WUHU216HW,2013-03-10 10:05:00,
2013-03-10 06:10:00,57.3,51.9,30.08,ENE,68,0.0,0.0,82,0.00,,,0.00,WUHU216HW,2013-03-10 10:10:00,
2013-03-10 06:15:00,57.3,51.9,30.08,ENE,68,0.0,0.0,82,0.00,,,0.00,WUHU216HW,2013-03-10 10:15:00,
2013-03-10 06:20:00,57.3,52.2,30.08,ENE,68,0.0,0.0,83,0.00,,,0.00,WUHU216HW,2013-03-10 10:20:00,
2013-03-10 06:25:00,57.3,52.2,30.08,ENE,68,0.0,0.0,83,0.00,,,0.00,WUHU216HW,2013-03-10 10:25:00,
2013-03-10 06:30:00,57.3,52.2,30.08,ENE,68,0.0,0.0,83,0.00,,,0.00,WUHU216HW,2013-03-10 10:30:00,
2013-03-10 06:35:00,57.3,52.2,30.08,ENE,68,0.0,0.0,83,0.00,,,0.00,WUHU216HW,2013-03-10 10:35:00,
2013-03-10 06:40:00,57.0,51.5,30.08,ENE,68,0.0,0.0,82,0.00,,,0.00,WUHU216HW,2013-03-10 10:40:00,
2013-03-10 06:45:00,57.0,51.5,30.09,ENE,68,0.0,0.0,82,0.00,,,0.00,WUHU216HW,2013-03-10 10:45:00,
2013-03-10 06:50:00,57.0,51.5,30.09,ENE,68,0.0,0.0,82,0.00,,,0.00,WUHU216HW,2013-03-10 10:50:00,
2013-03-10 06:55:00,56.8,51.3,30.09,ENE,68,0.0,0.0,82,0.00,,,0.00,WUHU216HW,2013-03-10 10:55:00,
2013-03-10 07:00:00,56.8,51.3,30.09,ENE,68,0.0,0.0,82,0.00,,,0.00,WUHU216HW,2013-03-10 11:00:00,
2013-03-10 07:05:00,56.8,51.3,30.09,ENE,68,0.0,0.0,82,0.00,,,0.00,WUHU216HW,2013-03-10 11:05:00,
2013-03-10 07:10:00,56.4,51.0,30.09,ENE,68,0.0,0.0,82,0.00,,,0.00,WUHU216HW,2013-03-10 11:10:00,
2013-03-10 07:15:00,56.4,51.3,30.09,ENE,68,0.0,0.0,82,0.00,,,0.00,WUHU216HW,2013-03-10 11:15:00,
2013-03-10 07:20:00,56.4,51.0,30.09,ENE,68,0.0,0.0,82,0.00,,,0.00,WUHU216HW,2013-03-10 11:20:00,
2013-03-10 07:25:00,56.3,50.8,30.09,ENE,68,0.0,0.0,82,0.00,,,0.00,WUHU216HW,2013-03-10 11:25:00,
2013-03-10 07:30:00,56.3,50.8,30.09,ENE,68,0.0,0.0,82,0.00,,,0.00,WUHU216HW,2013-03-10 11:30:00,
2013-03-10 07:35:00,56.1,50.6,30.09,ENE,68,0.0,0.0,82,0.00,,,0.00,WUHU216HW,2013-03-10 11:35:00,
2013-03-10 07:40:00,56.1,50.9,30.09,ENE,68,0.0,1.3,83,0.00,,,0.00,WUHU216HW,2013-03-10 11:40:00,
2013-03-10 07:45:00,56.3,51.1,30.09,ENE,68,0.0,1.3,83,0.00,,,0.00,WUHU216HW,2013-03-10 11:45:00,
2013-03-10 07:50:00,56.3,51.1,30.09,ENE,68,0.0,0.8,83,0.00,,,0.00,WUHU216HW,2013-03-10 11:50:00,
2013-03-10 07:55:00,56.3,51.1,30.09,ENE,68,0.0,1.3,83,0.00,,,0.00,WUHU216HW,2013-03-10 11:55:00,
2013-03-10 08:00:00,56.3,50.8,30.09,ENE,68,0.0,1.3,82,0.00,,,0.00,WUHU216HW,2013-03-10 12:00:00,
2013-03-10 08:05:00,56.4,51.0,30.10,ENE,68,0.0,0.0,82,0.00,,,0.00,WUHU216HW,2013-03-10 12:05:00,
2013-03-10 08:10:00,56.4,51.0,30.10,ENE,68,0.0,0.0,82,0.00,,,0.00,WUHU216HW,2013-03-10 12:10:00,
2013-03-10 08:15:00,56.8,51.3,30.10,ENE,68,0.0,0.0,82,0.00,,,0.00,WUHU216HW,2013-03-10 12:15:00,
2013-03-10 08:20:00,56.8,51.5,30.10,ENE,68,0.0,0.0,82,0.00,,,0.00,WUHU216HW,2013-03-10 12:20:00,
2013-03-10 08:25:00,57.0,51.5,30.10,ENE,68,0.6,0.6,82,0.00,,,0.00,WUHU216HW,2013-03-10 12:25:00,
2013-03-10 08:30:00,57.3,51.9,30.10,ENE,68,0.0,0.6,82,0.00,,,0.00,WUHU216HW,2013-03-10 12:30:00,
2013-03-10 08:35:00,57.3,51.9,30.10,ENE,68,0.0,0.0,82,0.00,,,0.00,WUHU216HW,2013-03-10 12:35:00,
2013-03-10 08:40:00,57.5,52.0,30.11,ENE,68,0.0,1.5,82,0.00,,,0.00,WUHU216HW,2013-03-10 12:40:00,
2013-03-10 08:45:00,57.7,52.2,30.10,ENE,68,0.0,1.5,82,0.00,,,0.00,WUHU216HW,2013-03-10 12:45:00,
2013-03-10 08:50:00,57.9,52.4,30.10,ENE,68,1.1,1.5,82,0.00,,,0.00,WUHU216HW,2013-03-10 12:50:00,
2013-03-10 08:55:00,58.4,52.9,30.10,ENE,68,0.0,2.9,82,0.00,,,0.00,WUHU216HW,2013-03-10 12:55:00,
2013-03-10 09:00:00,58.8,53.3,30.11,ENE,68,0.0,2.9,82,0.00,,,0.00,WUHU216HW,2013-03-10 13:00:00,
2013-03-10 09:05:00,58.8,53.3,30.11,ENE,68,0.8,2.4,82,0.00,,,0.00,WUHU216HW,2013-03-10 13:05:00,
2013-03-10 09:10:00,59.3,53.5,30.11,ENE,68,0.0,1.3,81,0.00,,,0.00,WUHU216HW,2013-03-10 13:10:00,
2013-03-10 09:15:00,59.7,53.9,30.11,ENE,68,0.0,0.8,81,0.00,,,0.00,WUHU216HW,2013-03-10 13:15:00,
2013-03-10 09:20:00,60.0,53.9,30.12,ENE,68,0.0,2.4,80,0.00,,,0.00,WUHU216HW,2013-03-10 13:20:00,
2013-03-10 09:25:00,60.6,54.5,30.12,ENE,68,3.8,3.8,80,0.00,,,0.00,WUHU216HW,2013-03-10 13:25:00,
2013-03-10 09:30:00,60.9,54.8,30.12,ENE,68,0.0,3.8,80,0.00,,,0.00,WUHU216HW,2013-03-10 13:30:00,
2013-03-10 09:35:00,61.3,54.8,30.12,NE,45,1.5,3.1,79,0.00,,,0.00,WUHU216HW,2013-03-10 13:35:00,
2013-03-10 09:40:00,61.7,55.1,30.12,ENE,68,3.5,3.8,79,0.00,,,0.00,WUHU216HW,2013-03-10 13:40:00,
2013-03-10 09:45:00,62.2,55.6,30.12,ENE,68,5.5,5.5,79,0.00,,,0.00,WUHU216HW,2013-03-10 13:45:00,
2013-03-10 09:50:00,62.6,55.5,30.12,ENE,68,1.5,5.5,78,0.00,,,0.00,WUHU216HW,2013-03-10 13:50:00,
2013-03-10 09:55:00,63.1,56.1,30.12,East,90,1.7,2.6,78,0.00,,,0.00,WUHU216HW,2013-03-10 13:55:00,
2013-03-10 10:00:00,63.3,55.9,30.12,ENE,68,2.6,7.3,77,0.00,,,0.00,WUHU216HW,2013-03-10 14:00:00,
2013-03-10 10:05:00,63.6,55.9,30.12,NE,45,5.1,7.3,76,0.00,,,0.00,WUHU216HW,2013-03-10 14:05:00,
2013-03-10 10:10:00,64.0,56.3,30.12,ENE,68,2.9,8.0,76,0.00,,,0.00,WUHU216HW,2013-03-10 14:10:00,
2013-03-10 10:15:00,64.5,56.4,30.12,ENE,68,4.2,8.0,75,0.00,,,0.00,WUHU216HW,2013-03-10 14:15:00,
2013-03-10 10:20:00,64.7,56.4,30.12,East,90,6.7,6.7,74,0.00,,,0.00,WUHU216HW,2013-03-10 14:20:00,
2013-03-10 10:25:00,65.1,56.6,30.12,ENE,68,7.1,7.1,74,0.00,,,0.00,WUHU216HW,2013-03-10 14:25:00,
2013-03-10 10:30:00,65.4,56.5,30.12,ENE,68,3.1,7.1,73,0.00,,,0.00,WUHU216HW,2013-03-10 14:30:00,
2013-03-10 10:35:00,65.8,56.5,30.12,NE,45,3.8,7.1,72,0.00,,,0.00,WUHU216HW,2013-03-10 14:35:00,
2013-03-10 10:40:00,66.2,56.4,30.12,ENE,68,4.2,7.3,71,0.00,,,0.00,WUHU216HW,2013-03-10 14:40:00,
2013-03-10 10:45:00,66.5,56.8,30.13,NE,45,2.4,8.5,71,0.00,,,0.00,WUHU216HW,2013-03-10 14:45:00,
2013-03-10 10:50:00,66.9,56.8,30.12,NE,45,2.6,8.5,70,0.00,,,0.00,WUHU216HW,2013-03-10 14:50:00,
2013-03-10 10:55:00,67.2,57.2,30.12,ENE,68,1.5,5.8,70,0.00,,,0.00,WUHU216HW,2013-03-10 14:55:00,
2013-03-10 11:00:00,67.8,57.7,30.12,NNE,23,6.0,6.0,70,0.00,,,0.00,WUHU216HW,2013-03-10 15:00:00,
2013-03-10 11:05:00,68.3,57.8,30.12,NE,45,5.3,7.1,69,0.00,,,0.00,WUHU216HW,2013-03-10 15:05:00,
2013-03-10 11:10:00,68.7,57.7,30.12,NE,45,8.0,8.9,68,0.00,,,0.00,WUHU216HW,2013-03-10 15:10:00,
2013-03-10 11:15:00,69.0,57.6,30.12,ENE,68,6.2,8.9,67,0.00,,,0.00,WUHU216HW,2013-03-10 15:15:00,
2013-03-10 11:20:00,69.6,58.1,30.12,NE,45,6.0,7.3,67,0.00,,,0.00,WUHU216HW,2013-03-10 15:20:00,
2013-03-10 11:25:00,69.9,58.4,30.12,NNE,23,8.0,8.0,67,0.00,,,0.00,WUHU216HW,2013-03-10 15:25:00,
2013-03-10 11:30:00,70.3,58.3,30.12,ENE,68,4.4,8.0,67,0.00,,,0.00,WUHU216HW,2013-03-10 15:30:00,
2013-03-10 11:35:00,70.7,58.7,30.12,NE,45,0.0,7.6,66,0.00,,,0.00,WUHU216HW,2013-03-10 15:35:00,
2013-03-10 11:40:00,71.2,58.8,30.11,East,90,2.6,5.1,65,0.00,,,0.00,WUHU216HW,2013-03-10 15:40:00,
2013-03-10 11:45:00,71.4,59.0,30.11,ENE,68,10.5,10.5,65,0.00,,,0.00,WUHU216HW,2013-03-10 15:45:00,
2013-03-10 11:50:00,71.7,58.4,30.11,ENE,68,2.4,10.5,63,0.00,,,0.00,WUHU216HW,2013-03-10 15:50:00,
2013-03-10 11:55:00,72.3,58.9,30.11,ENE,68,3.3,8.7,63,0.00,,,0.00,WUHU216HW,2013-03-10 15:55:00,
2013-03-10 12:00:00,72.5,58.7,30.10,East,90,1.7,10.2,62,0.00,,,0.00,WUHU216HW,2013-03-10 16:00:00,
2013-03-10 12:05:00,72.6,58.4,30.10,ESE,113,0.0,10.2,61,0.00,,,0.00,WUHU216HW,2013-03-10 16:05:00,
2013-03-10 12:10:00,72.8,58.5,30.10,ENE,68,4.6,6.9,61,0.00,,,0.00,WUHU216HW,2013-03-10 16:10:00,
2013-03-10 12:15:00,72.8,58.7,30.09,ENE,68,0.0,6.4,61,0.00,,,0.00,WUHU216HW,2013-03-10 16:15:00,
2013-03-10 12:20:00,73.0,58.3,30.10,East,90,5.5,12.5,60,0.00,,,0.00,WUHU216HW,2013-03-10 16:20:00,
2013-03-10 12:25:00,73.0,58.3,30.09,SE,135,1.5,12.5,60,0.00,,,0.00,WUHU216HW,2013-03-10 16:25:00,
2013-03-10 12:30:00,73.5,58.8,30.09,East,90,0.0,9.1,60,0.00,,,0.00,WUHU216HW,2013-03-10 16:30:00,
2013-03-10 12:35:00,73.5,58.3,30.08,East,90,4.2,10.7,59,0.00,,,0.00,WUHU216HW,2013-03-10 16:35:00,
2013-03-10 12:40:00,73.9,58.1,30.08,NE,45,10.7,10.7,58,0.00,,,0.00,WUHU216HW,2013-03-10 16:40:00,
2013-03-10 12:45:00,73.9,58.1,30.08,ENE,68,0.0,10.7,58,0.00,,,0.00,WUHU216HW,2013-03-10 16:45:00,
2013-03-10 12:50:00,74.3,58.5,30.08,ESE,113,1.3,8.7,58,0.00,,,0.00,WUHU216HW,2013-03-10 16:50:00,
2013-03-10 12:55:00,74.6,58.3,30.08,ENE,68,5.1,7.1,57,0.00,,,0.00,WUHU216HW,2013-03-10 16:55:00,
2013-03-10 13:00:00,75.0,59.2,30.07,NE,45,5.5,7.8,58,0.00,,,0.00,WUHU216HW,2013-03-10 17:00:00,
2013-03-10 13:05:00,75.3,58.5,30.07,SE,135,5.3,7.8,56,0.00,,,0.00,WUHU216HW,2013-03-10 17:05:00,
2013-03-10 13:10:00,75.7,59.2,30.07,East,90,0.0,6.4,57,0.00,,,0.00,WUHU216HW,2013-03-10 17:10:00,
2013-03-10 13:15:00,76.1,60.2,30.07,SSE,158,2.4,6.7,58,0.00,,,0.00,WUHU216HW,2013-03-10 17:15:00,
2013-03-10 13:20:00,76.6,59.7,30.07,East,90,5.1,6.7,56,0.00,,,0.00,WUHU216HW,2013-03-10 17:20:00,
2013-03-10 13:25:00,77.0,60.0,30.07,NE,45,4.9,6.7,56,0.00,,,0.00,WUHU216HW,2013-03-10 17:25:00,
2013-03-10 13:30:00,77.3,59.3,30.07,ESE,113,0.0,7.3,54,0.00,,,0.00,WUHU216HW,2013-03-10 17:30:00,
2013-03-10 13:35:00,77.3,59.3,30.07,East,90,0.0,7.3,54,0.00,,,0.00,WUHU216HW,2013-03-10 17:35:00,
2013-03-10 13:40:00,77.5,59.5,30.07,East,90,3.8,3.8,54,0.00,,,0.00,WUHU216HW,2013-03-10 17:40:00,
2013-03-10 13:45:00,77.7,59.7,30.06,SSE,158,0.4,12.7,54,0.00,,,0.00,WUHU216HW,2013-03-10 17:45:00,
2013-03-10 13:50:00,77.9,60.3,30.06,ENE,68,4.4,12.7,55,0.00,,,0.00,WUHU216HW,2013-03-10 17:50:00,
2013-03-10 13:55:00,78.0,59.5,30.07,SSE,158,0.0,6.0,53,0.00,,,0.00,WUHU216HW,2013-03-10 17:55:00,
2013-03-10 14:00:00,78.0,60.0,30.06,SE,135,0.0,9.1,54,0.00,,,0.00,WUHU216HW,2013-03-10 18:00:00,
2013-03-10 14:05:00,78.2,60.2,30.06,East,90,0.0,9.1,54,0.00,,,0.00,WUHU216HW,2013-03-10 18:05:00,
2013-03-10 14:10:00,78.4,59.8,30.06,NE,45,4.6,8.2,53,0.00,,,0.00,WUHU216HW,2013-03-10 18:10:00,
2013-03-10 14:15:00,78.6,60.5,30.06,North,0,0.0,8.9,54,0.00,,,0.00,WUHU216HW,2013-03-10 18:15:00,
2013-03-10 14:20:00,78.8,60.0,30.05,ENE,68,2.9,8.9,53,0.00,,,0.00,WUHU216HW,2013-03-10 18:20:00,
2013-03-10 14:25:00,79.1,60.5,30.05,NE,45,8.2,8.2,53,0.00,,,0.00,WUHU216HW,2013-03-10 18:25:00,
2013-03-10 14:30:00,79.3,60.1,30.05,ESE,113,6.0,8.2,52,0.00,,,0.00,WUHU216HW,2013-03-10 18:30:00,
2013-03-10 14:35:00,79.5,59.8,30.05,SE,135,6.7,6.7,51,0.00,,,0.00,WUHU216HW,2013-03-10 18:35:00,
2013-03-10 14:40:00,79.8,59.6,30.05,South,180,0.0,6.7,50,0.00,,,0.00,WUHU216HW,2013-03-10 18:40:00,
2013-03-10 14:45:00,80.0,60.2,30.05,SW,225,0.0,6.0,51,0.00,,,0.00,WUHU216HW,2013-03-10 18:45:00,
2013-03-10 14:50:00,80.2,59.9,30.05,ENE,68,3.1,6.0,50,0.00,,,0.00,WUHU216HW,2013-03-10 18:50:00,
2013-03-10 14:55:00,80.4,60.0,30.05,ENE,68,4.9,7.8,50,0.00,,,0.00,WUHU216HW,2013-03-10 18:55:00,
2013-03-10 15:00:00,80.7,60.4,30.05,South,180,0.0,7.8,50,0.00,,,0.00,WUHU216HW,2013-03-10 19:00:00,
2013-03-10 15:05:00,81.3,60.2,30.05,East,90,1.3,6.7,49,0.00,,,0.00,WUHU216HW,2013-03-10 19:05:00,
2013-03-10 15:10:00,81.5,59.8,30.04,ENE,68,2.2,6.7,48,0.00,,,0.00,WUHU216HW,2013-03-10 19:10:00,
2013-03-10 15:15:00,81.5,59.2,30.04,SE,135,9.6,9.6,47,0.00,,,0.00,WUHU216HW,2013-03-10 19:15:00,
2013-03-10 15:20:00,81.6,59.3,30.04,SSE,158,4.4,9.6,47,0.00,,,0.00,WUHU216HW,2013-03-10 19:20:00,
2013-03-10 15:25:00,81.6,58.7,30.04,SE,135,3.8,6.4,46,0.00,,,0.00,WUHU216HW,2013-03-10 19:25:00,
2013-03-10 15:30:00,82.0,59.7,30.04,ESE,113,2.6,4.0,47,0.00,,,0.00,WUHU216HW,2013-03-10 19:30:00,
2013-03-10 15:35:00,81.8,59.5,30.04,East,90,0.0,9.1,46,0.00,,,0.00,WUHU216HW,2013-03-10 19:35:00,
2013-03-10 15:40:00,81.6,59.3,30.03,SSW,203,6.2,9.1,47,0.00,,,0.00,WUHU216HW,2013-03-10 19:40:00,
2013-03-10 15:45:00,82.0,59.1,30.04,East,90,0.0,8.0,46,0.00,,,0.00,WUHU216HW,2013-03-10 19:45:00,
2013-03-10 15:50:00,82.0,59.1,30.04,East,90,0.0,5.8,46,0.00,,,0.00,WUHU216HW,2013-03-10 19:50:00,
2013-03-10 15:55:00,81.6,59.3,30.04,ESE,113,4.2,5.3,47,0.00,,,0.00,WUHU216HW,2013-03-10 19:55:00,
2013-03-10 16:00:00,81.6,59.3,30.04,South,180,7.8,7.8,47,0.00,,,0.00,WUHU216HW,2013-03-10 20:00:00,
2013-03-10 16:05:00,81.6,59.5,30.03,SSW,203,3.5,7.8,47,0.00,,,0.00,WUHU216HW,2013-03-10 20:05:00,
2013-03-10 16:10:00,82.0,59.7,30.04,SSE,158,5.8,6.0,47,0.00,,,0.00,WUHU216HW,2013-03-10 20:10:00,
2013-03-10 16:15:00,82.2,59.2,30.03,SSE,158,2.6,10.5,46,0.00,,,0.00,WUHU216HW,2013-03-10 20:15:00,
2013-03-10 16:20:00,82.5,60.2,30.03,East,90,5.8,12.5,47,0.00,,,0.00,WUHU216HW,2013-03-10 20:20:00,
2013-03-10 16:25:00,82.9,59.9,30.03,SE,135,5.3,12.5,46,0.00,,,0.00,WUHU216HW,2013-03-10 20:25:00,
2013-03-10 16:30:00,83.3,60.2,30.03,East,90,0.0,6.4,46,0.00,,,0.00,WUHU216HW,2013-03-10 20:30:00,
2013-03-10 16:35:00,83.6,60.8,30.04,SSW,203,0.0,3.8,45,0.00,,,0.00,WUHU216HW,2013-03-10 20:35:00,
2013-03-10 16:40:00,84.2,60.5,30.03,South,180,2.9,4.4,45,0.00,,,0.00,WUHU216HW,2013-03-10 20:40:00,
2013-03-10 16:45:00,84.5,60.2,30.03,East,90,4.4,6.2,44,0.00,,,0.00,WUHU216HW,2013-03-10 20:45:00,
2013-03-10 16:50:00,85.1,60.7,30.03,SSE,158,0.8,6.2,44,0.00,,,0.00,WUHU216HW,2013-03-10 20:50:00,
2013-03-10 16:55:00,85.6,61.1,30.03,SE,135,2.2,6.0,44,0.00,,,0.00,WUHU216HW,2013-03-10 20:55:00,
2013-03-10 17:00:00,86.3,61.8,30.03,NNE,23,5.5,5.5,44,0.00,,,0.00,WUHU216HW,2013-03-10 21:00:00,
2013-03-10 17:05:00,87.0,61.8,30.04,NE,45,0.0,10.2,44,0.00,,,0.00,WUHU216HW,2013-03-10 21:05:00,
2013-03-10 17:10:00,86.9,61.0,30.03,ENE,68,3.1,10.2,42,0.00,,,0.00,WUHU216HW,2013-03-10 21:10:00,
2013-03-10 17:15:00,85.8,60.7,30.04,East,90,3.1,8.9,43,0.00,,,0.00,WUHU216HW,2013-03-10 21:15:00,
2013-03-10 17:20:00,84.9,59.9,30.03,ENE,68,0.0,7.6,43,0.00,,,0.00,WUHU216HW,2013-03-10 21:20:00,
2013-03-10 17:25:00,83.4,59.5,30.04,SE,135,2.4,7.6,44,0.00,,,0.00,WUHU216HW,2013-03-10 21:25:00,
2013-03-10 17:30:00,82.4,59.5,30.04,ESE,113,0.0,6.9,46,0.00,,,0.00,WUHU216HW,2013-03-10 21:30:00,
2013-03-10 17:35:00,82.0,60.3,30.04,ENE,68,5.1,6.0,48,0.00,,,0.00,WUHU216HW,2013-03-10 21:35:00,
2013-03-10 17:40:00,82.5,60.8,30.04,SE,135,11.6,11.6,48,0.00,,,0.00,WUHU216HW,2013-03-10 21:40:00,
2013-03-10 17:45:00,82.7,60.3,30.04,East,90,0.0,11.6,47,0.00,,,0.00,WUHU216HW,2013-03-10 21:45:00,
2013-03-10 17:50:00,82.2,59.8,30.04,ENE,68,0.0,3.5,47,0.00,,,0.00,WUHU216HW,2013-03-10 21:50:00,
2013-03-10 17:55:00,81.8,60.1,30.04,ESE,113,0.0,5.8,48,0.00,,,0.00,WUHU216HW,2013-03-10 21:55:00,
2013-03-10 18:00:00,81.5,59.8,30.04,ENE,68,0.0,5.8,48,0.00,,,0.00,WUHU216HW,2013-03-10 22:00:00,
2013-03-10 18:05:00,81.1,59.5,30.04,East,90,0.0,4.0,48,0.00,,,0.00,WUHU216HW,2013-03-10 22:05:00,
2013-03-10 18:10:00,80.4,58.8,30.04,ENE,68,4.9,6.2,48,0.00,,,0.00,WUHU216HW,2013-03-10 22:10:00,
2013-03-10 18:15:00,80.0,59.6,30.04,ENE,68,4.9,6.2,49,0.00,,,0.00,WUHU216HW,2013-03-10 22:15:00,
2013-03-10 18:20:00,80.2,59.9,30.04,East,90,1.5,4.9,50,0.00,,,0.00,WUHU216HW,2013-03-10 22:20:00,
2013-03-10 18:25:00,80.2,59.3,30.04,ENE,68,9.8,9.8,49,0.00,,,0.00,WUHU216HW,2013-03-10 22:25:00,
2013-03-10 18:30:00,79.8,59.6,30.04,ENE,68,6.4,9.8,50,0.00,,,0.00,WUHU216HW,2013-03-10 22:30:00,
2013-03-10 18:35:00,79.3,59.2,30.05,ENE,68,0.0,6.4,50,0.00,,,0.00,WUHU216HW,2013-03-10 22:35:00,
2013-03-10 18:40:00,78.9,58.8,30.04,East,90,0.0,0.8,50,0.00,,,0.00,WUHU216HW,2013-03-10 22:40:00,
2013-03-10 18:46:00,78.9,59.3,30.05,East,90,1.1,1.1,51,0.00,,,0.00,WUHU216HW,2013-03-10 22:46:00,
2013-03-10 18:50:00,78.9,59.3,30.04,ENE,68,4.0,6.9,51,0.00,,,0.00,WUHU216HW,2013-03-10 22:50:00,
2013-03-10 18:55:00,78.9,59.3,30.05,East,90,6.4,6.9,51,0.00,,,0.00,WUHU216HW,2013-03-10 22:55:00,
2013-03-10 19:01:00,78.6,58.9,30.05,ENE,68,4.0,6.4,51,0.00,,,0.00,WUHU216HW,2013-03-10 23:01:00,
2013-03-10 19:06:00,78.2,58.6,30.05,East,90,0.0,7.3,51,0.00,,,0.00,WUHU216HW,2013-03-10 23:06:00,
2013-03-10 19:11:00,77.7,58.1,30.05,ENE,68,0.0,7.3,51,0.00,,,0.00,WUHU216HW,2013-03-10 23:11:00,
2013-03-10 19:16:00,77.0,58.0,30.05,ENE,68,0.8,6.2,52,0.00,,,0.00,WUHU216HW,2013-03-10 23:16:00,
2013-03-10 19:21:00,76.1,57.7,30.05,East,90,2.9,6.4,53,0.00,,,0.00,WUHU216HW,2013-03-10 23:21:00,
2013-03-10 19:26:00,75.5,57.2,30.05,East,90,6.4,6.4,53,0.00,,,0.00,WUHU216HW,2013-03-10 23:26:00,
2013-03-10 19:31:00,75.0,56.7,30.05,ENE,68,2.6,6.9,53,0.00,,,0.00,WUHU216HW,2013-03-10 23:31:00,
2013-03-10 19:36:00,74.8,57.0,30.05,ENE,68,0.0,11.6,54,0.00,,,0.00,WUHU216HW,2013-03-10 23:36:00,
2013-03-10 19:41:00,74.3,57.0,30.05,ENE,68,3.1,11.6,55,0.00,,,0.00,WUHU216HW,2013-03-10 23:41:00,
2013-03-10 19:46:00,73.9,56.6,30.06,ENE,68,0.0,5.3,55,0.00,,,0.00,WUHU216HW,2013-03-10 23:46:00,
2013-03-10 19:51:00,73.5,56.8,30.06,East,90,1.5,6.0,56,0.00,,,0.00,WUHU216HW,2013-03-10 23:51:00,
2013-03-10 19:56:00,73.2,56.4,30.06,ENE,68,1.3,6.4,56,0.00,,,0.00,WUHU216HW,2013-03-10 23:56:00,
2013-03-10 20:01:00,73.0,56.9,30.06,ENE,68,2.4,6.4,57,0.00,,,0.00,WUHU216HW,2013-03-11 00:01:00,
2013-03-10 20:06:00,72.8,57.1,30.07,East,90,6.0,6.0,58,0.00,,,0.00,WUHU216HW,2013-03-11 00:06:00,
2013-03-10 20:11:00,72.5,56.8,30.07,ENE,68,0.0,6.0,58,0.00,,,0.00,WUHU216HW,2013-03-11 00:11:00,
2013-03-10 20:17:00,72.3,57.1,30.07,East,90,3.3,4.2,59,0.00,,,0.00,WUHU216HW,2013-03-11 00:17:00,
2013-03-10 20:22:00,71.9,56.8,30.07,ENE,68,5.5,6.0,59,0.00,,,0.00,WUHU216HW,2013-03-11 00:22:00,
2013-03-10 20:27:00,71.7,57.1,30.07,ENE,68,3.1,6.0,60,0.00,,,0.00,WUHU216HW,2013-03-11 00:27:00,
2013-03-10 20:32:00,71.7,57.1,30.07,East,90,0.0,8.5,60,0.00,,,0.00,WUHU216HW,2013-03-11 00:32:00,
2013-03-10 20:37:00,71.4,56.8,30.07,East,90,2.4,8.5,60,0.00,,,0.00,WUHU216HW,2013-03-11 00:37:00,
2013-03-10 20:42:00,71.4,57.2,30.07,ENE,68,0.0,4.2,61,0.00,,,0.00,WUHU216HW,2013-03-11 00:42:00,
2013-03-10 20:47:00,71.2,57.1,30.07,ENE,68,5.1,5.1,61,0.00,,,0.00,WUHU216HW,2013-03-11 00:47:00,
2013-03-10 20:53:00,70.8,56.7,30.07,ENE,68,0.0,5.1,61,0.00,,,0.00,WUHU216HW,2013-03-11 00:53:00,
2013-03-10 20:58:00,70.7,56.6,30.07,ENE,68,1.5,3.8,61,0.00,,,0.00,WUHU216HW,2013-03-11 00:58:00,
2013-03-10 21:03:00,70.5,56.8,30.08,ENE,68,4.0,4.0,62,0.00,,,0.00,WUHU216HW,2013-03-11 01:03:00,
2013-03-10 21:08:00,70.3,56.7,30.08,ENE,68,0.0,4.2,62,0.00,,,0.00,WUHU216HW,2013-03-11 01:08:00,
2013-03-10 21:13:00,70.1,56.9,30.08,ENE,68,1.3,4.2,63,0.00,,,0.00,WUHU216HW,2013-03-11 01:13:00,
2013-03-10 21:18:00,69.9,56.8,30.08,ENE,68,0.8,1.3,63,0.00,,,0.00,WUHU216HW,2013-03-11 01:18:00,
2013-03-10 21:23:00,69.6,56.4,30.09,ENE,68,0.0,0.8,63,0.00,,,0.00,WUHU216HW,2013-03-11 01:23:00,
2013-03-10 21:28:00,69.4,56.6,30.09,ENE,68,0.0,0.0,64,0.00,,,0.00,WUHU216HW,2013-03-11 01:28:00,
2013-03-10 21:33:00,69.0,56.3,30.09,ENE,68,0.0,0.0,64,0.00,,,0.00,WUHU216HW,2013-03-11 01:33:00,
2013-03-10 21:38:00,68.9,56.6,30.09,ENE,68,0.0,0.0,65,0.00,,,0.00,WUHU216HW,2013-03-11 01:38:00,
2013-03-10 21:43:00,68.7,56.4,30.09,ENE,68,0.0,0.0,65,0.00,,,0.00,WUHU216HW,2013-03-11 01:43:00,
2013-03-10 21:48:00,68.5,56.2,30.09,ENE,68,0.0,0.0,65,0.00,,,0.00,WUHU216HW,2013-03-11 01:48:00,
2013-03-10 21:53:00,68.1,55.9,30.09,ENE,68,0.0,0.0,65,0.00,,,0.00,WUHU216HW,2013-03-11 01:53:00,
2013-03-10 21:58:00,68.0,56.1,30.09,ENE,68,0.0,0.0,66,0.00,,,0.00,WUHU216HW,2013-03-11 01:58:00,
2013-03-10 22:03:00,67.8,56.0,30.09,ENE,68,0.0,0.6,66,0.00,,,0.00,WUHU216HW,2013-03-11 02:03:00,
2013-03-10 22:08:00,67.6,55.8,30.09,ENE,68,0.0,2.0,66,0.00,,,0.00,WUHU216HW,2013-03-11 02:08:00,
2013-03-10 22:13:00,67.6,56.2,30.09,ENE,68,0.0,2.0,67,0.00,,,0.00,WUHU216HW,2013-03-11 02:13:00,
2013-03-10 22:18:00,67.2,55.9,30.09,ENE,68,4.9,4.9,67,0.00,,,0.00,WUHU216HW,2013-03-11 02:18:00,
2013-03-10 22:23:00,67.2,55.9,30.09,ENE,68,0.0,4.9,67,0.00,,,0.00,WUHU216HW,2013-03-11 02:23:00,
2013-03-10 22:28:00,66.9,55.5,30.09,ENE,68,0.4,4.2,67,0.00,,,0.00,WUHU216HW,2013-03-11 02:28:00,
2013-03-10 22:33:00,66.9,55.5,30.09,ENE,68,0.8,2.9,67,0.00,,,0.00,WUHU216HW,2013-03-11 02:33:00,
2013-03-10 22:38:00,66.9,55.9,30.09,ENE,68,0.8,2.6,68,0.00,,,0.00,WUHU216HW,2013-03-11 02:38:00,
2013-03-10 22:43:00,66.7,55.8,30.09,East,90,2.2,4.2,68,0.00,,,0.00,WUHU216HW,2013-03-11 02:43:00,
2013-03-10 22:48:00,66.7,55.8,30.08,ENE,68,6.4,6.4,68,0.00,,,0.00,WUHU216HW,2013-03-11 02:48:00,
2013-03-10 22:53:00,66.7,55.8,30.09,ENE,68,4.2,6.4,68,0.00,,,0.00,WUHU216HW,2013-03-11 02:53:00,
2013-03-10 22:58:00,66.7,55.8,30.09,ENE,68,1.5,6.0,68,0.00,,,0.00,WUHU216HW,2013-03-11 02:58:00,
2013-03-10 23:03:00,66.7,55.8,30.09,ENE,68,0.0,7.1,68,0.00,,,0.00,WUHU216HW,2013-03-11 03:03:00,
2013-03-10 23:08:00,66.5,55.6,30.09,ENE,68,0.6,7.1,68,0.00,,,0.00,WUHU216HW,2013-03-11 03:08:00,
2013-03-10 23:13:00,66.3,55.4,30.09,ENE,68,3.8,6.2,68,0.00,,,0.00,WUHU216HW,2013-03-11 03:13:00,
2013-03-10 23:18:00,66.3,55.4,30.09,ENE,68,1.5,5.5,68,0.00,,,0.00,WUHU216HW,2013-03-11 03:18:00,
2013-03-10 23:23:00,66.2,55.2,30.09,East,90,3.5,5.5,68,0.00,,,0.00,WUHU216HW,2013-03-11 03:23:00,
2013-03-10 23:28:00,66.0,55.5,30.09,ENE,68,1.7,5.5,69,0.00,,,0.00,WUHU216HW,2013-03-11 03:28:00,
2013-03-10 23:33:00,66.0,55.5,30.09,ENE,68,0.6,4.0,69,0.00,,,0.00,WUHU216HW,2013-03-11 03:33:00,
2013-03-10 23:38:00,66.0,55.5,30.09,ENE,68,0.0,9.1,69,0.00,,,0.00,WUHU216HW,2013-03-11 03:38:00,
2013-03-10 23:43:00,65.8,55.3,30.08,ENE,68,1.7,9.1,69,0.00,,,0.00,WUHU216HW,2013-03-11 03:43:00,
2013-03-10 23:48:00,65.8,55.3,30.09,ENE,68,1.5,3.8,69,0.00,,,0.00,WUHU216HW,2013-03-11 03:48:00,
2013-03-10 23:53:00,65.8,55.7,30.08,ENE,68,0.0,3.8,70,0.00,,,0.00,WUHU216HW,2013-03-11 03:53:00,
2013-03-10 23:58:00,65.6,55.6,30.08,ENE,68,2.4,4.6,70,0.00,,,0.00,WUHU216HW,2013-03-11 03:58:00,